Torna al catalogo

STARLINK-31065

AttivoComunicazioniVLEO
NORAD 58627·PAYLOAD·🇺🇸 United States

Lanciato Dec 23, 2023 da Cape Canaveral Space Force Station

Loading…

Prossimi Passaggi (prossime 24 ore)

TLE

AggiornatoSource: CelesTrak SupGP

Epoca: Sep 14, 2026, 21:27 UTC

1 58627C 23203K   26257.89423611  .00018292  00000+0  66272-3 0  2578
2 58627  43.0008  78.3466 0001455 275.0143 328.2284 15.27560192    14

Traccia STARLINK-31065 in tempo reale con AllMySat

Download on the App Store